| time (UTC) | temp F | wind direction | speed knots | gust knots | rain 1hr in | rain 24hr in | rain mn in | humidity % | barometer mb |
| 20260504004509 | 47 | 123 | 0.9 | 0.9 | 0.00 | 0.00 | 0.00 | 59 | 1017.2 |
| 20260504004006 | 47 | 136 | 0.0 | 0.0 | 0.00 | 0.00 | 0.00 | 57 | 1017.2 |
| 20260504003502 | 47 | 136 | 0.0 | 0.0 | 0.00 | 0.00 | 0.00 | 57 | 1017.2 |
| 20260504002959 | 47 | 136 | 0.0 | 0.0 | 0.00 | 0.00 | 0.00 | 57 | 1017.2 |
| 20260504002456 | 48 | 136 | 0.0 | 0.9 | 0.00 | 0.00 | 0.00 | 56 | 1017.0 |
| 20260504001953 | 48 | 136 | 0.0 | 0.0 | 0.00 | 0.00 | 0.00 | 54 | 1017.1 |
| 20260504001451 | 49 | 136 | 0.0 | 0.0 | 0.00 | 0.00 | 0.00 | 52 | 1017.2 |
| 20260504000947 | 49 | 136 | 0.0 | 0.0 | 0.00 | 0.00 | 0.00 | 52 | 1017.4 |
| 20260504000444 | 50 | 206 | 0.9 | 0.9 | 0.00 | 0.00 | 0.00 | 50 | 1017.3 |
| 20260503235942 | 51 | 231 | 0.9 | 1.7 | 0.00 | 0.00 | 0.00 | 48 | 1017.3 |
| 20260503235439 | 51 | 239 | 0.9 | 1.7 | 0.00 | 0.00 | 0.00 | 45 | 1017.4 |
| 20260503234936 | 51 | 245 | 1.7 | 2.6 | 0.00 | 0.00 | 0.00 | 43 | 1017.2 |
| 20260503234434 | 51 | 269 | 2.6 | 2.6 | 0.00 | 0.00 | 0.00 | 42 | 1017.3 |
| 20260503233932 | 52 | 249 | 0.0 | 2.6 | 0.00 | 0.00 | 0.00 | 46 | 1017.3 |
| 20260503233428 | 52 | 244 | 1.7 | 1.7 | 0.00 | 0.00 | 0.00 | 43 | 1017.2 |
| 20260503232925 | 53 | 228 | 2.6 | 2.6 | 0.00 | 0.00 | 0.00 | 41 | 1017.3 |
| 20260503232422 | 53 | 259 | 2.6 | 2.6 | 0.00 | 0.00 | 0.00 | 39 | 1017.6 |
| 20260503231920 | 53 | 261 | 2.6 | 3.5 | 0.00 | 0.00 | 0.00 | 38 | 1017.6 |
| 20260503231417 | 53 | 241 | 3.5 | 3.5 | 0.00 | 0.00 | 0.00 | 39 | 1017.3 |
| 20260503230913 | 53 | 262 | 0.9 | 1.7 | 0.00 | 0.00 | 0.00 | 42 | 1017.4 |
| 20260503230410 | 54 | 237 | 1.7 | 3.5 | 0.00 | 0.00 | 0.00 | 41 | 1017.3 |
| 20260503225908 | 54 | 218 | 1.7 | 6.1 | 0.00 | 0.00 | 0.00 | 37 | 1017.6 |
| 20260503225403 | 54 | 281 | 1.7 | 2.6 | 0.00 | 0.00 | 0.00 | 39 | 1017.7 |
| 20260503224900 | 54 | 211 | 2.6 | 2.6 | 0.00 | 0.00 | 0.00 | 41 | 1017.6 |
| 20260503224357 | 54 | 243 | 1.7 | 1.7 | 0.00 | 0.00 | 0.00 | 38 | 1017.3 |
| 20260503223854 | 54 | 272 | 2.6 | 2.6 | 0.00 | 0.00 | 0.00 | 40 | 1017.6 |
| 20260503223352 | 54 | 262 | 3.5 | 5.2 | 0.00 | 0.00 | 0.00 | 36 | 1017.6 |
| 20260503222847 | 55 | 222 | 3.5 | 6.1 | 0.00 | 0.00 | 0.00 | 36 | 1017.6 |
| 20260503222347 | 55 | 342 | 1.7 | 5.2 | 0.00 | 0.00 | 0.00 | 39 | 1017.4 |
| 20260503221844 | 55 | 233 | 3.5 | 5.2 | 0.00 | 0.00 | 0.00 | 37 | 1017.6 |
| 20260503221343 | 54 | 255 | 1.7 | 2.6 | 0.00 | 0.00 | 0.00 | 40 | 1017.6 |
| 20260503220838 | 54 | 242 | 3.5 | 5.2 | 0.00 | 0.00 | 0.00 | 37 | 1017.7 |
| 20260503220335 | 54 | 228 | 2.6 | 3.5 | 0.00 | 0.00 | 0.00 | 36 | 1017.4 |
| 20260503215832 | 54 | 235 | 2.6 | 6.1 | 0.00 | 0.00 | 0.00 | 36 | 1017.6 |
| 20260503215329 | 55 | 234 | 1.7 | 6.1 | 0.00 | 0.00 | 0.00 | 34 | 1017.2 |
| 20260503214827 | 55 | 285 | 0.9 | 2.6 | 0.00 | 0.00 | 0.00 | 36 | 1017.7 |
| 20260503214324 | 55 | 237 | 5.2 | 6.1 | 0.00 | 0.00 | 0.00 | 36 | 1017.4 |
| 20260503213821 | 56 | 35 | 1.7 | 1.7 | 0.00 | 0.00 | 0.00 | 35 | 1017.4 |
| 20260503213319 | 55 | 245 | 1.7 | 3.5 | 0.00 | 0.00 | 0.00 | 37 | 1017.2 |
| 20260503212815 | 56 | 192 | 4.3 | 5.2 | 0.00 | 0.00 | 0.00 | 35 | 1017.3 |
| 20260503212313 | 56 | 232 | 2.6 | 5.2 | 0.00 | 0.00 | 0.00 | 36 | 1017.4 |
| 20260503211810 | 56 | 207 | 3.5 | 5.2 | 0.00 | 0.00 | 0.00 | 37 | 1017.6 |
| 20260503211307 | 56 | 234 | 2.6 | 3.5 | 0.00 | 0.00 | 0.00 | 36 | 1017.6 |
| 20260503210802 | 57 | 277 | 1.7 | 3.5 | 0.00 | 0.00 | 0.00 | 35 | 1017.6 |
| 20260503210259 | 57 | 245 | 1.7 | 5.2 | 0.00 | 0.00 | 0.00 | 37 | 1017.6 |
| 20260503205753 | 57 | 253 | 1.7 | 2.6 | 0.00 | 0.00 | 0.00 | 32 | 1017.9 |
| 20260503205250 | 56 | 221 | 1.7 | 5.2 | 0.00 | 0.00 | 0.00 | 34 | 1017.8 |
| 20260503204747 | 56 | 231 | 4.3 | 6.1 | 0.00 | 0.00 | 0.00 | 37 | 1017.8 |
| 20260503204245 | 56 | 231 | 1.7 | 3.5 | 0.00 | 0.00 | 0.00 | 36 | 1017.8 |
| 20260503203742 | 56 | 251 | 3.5 | 7.0 | 0.00 | 0.00 | 0.00 | 35 | 1018.0 |
| 20260503203239 | 56 | 243 | 1.7 | 7.0 | 0.00 | 0.00 | 0.00 | 33 | 1018.1 |
| 20260503202736 | 56 | 253 | 4.3 | 7.0 | 0.00 | 0.00 | 0.00 | 35 | 1018.2 |
| 20260503202234 | 58 | 96 | 0.9 | 2.6 | 0.00 | 0.00 | 0.00 | 35 | 1018.1 |
| 20260503201732 | 58 | 260 | 2.6 | 5.2 | 0.00 | 0.00 | 0.00 | 32 | 1018.1 |
| 20260503201229 | 56 | 282 | 1.7 | 3.5 | 0.00 | 0.00 | 0.00 | 39 | 1018.2 |
| 20260503200725 | 57 | 286 | 1.7 | 7.8 | 0.00 | 0.00 | 0.00 | 37 | 1018.2 |
| 20260503200222 | 58 | 246 | 1.7 | 3.5 | 0.00 | 0.00 | 0.00 | 34 | 1018.4 |
| 20260503195718 | 57 | 346 | 0.9 | 7.0 | 0.00 | 0.00 | 0.00 | 35 | 1018.5 |
| 20260503195215 | 56 | 310 | 1.7 | 7.0 | 0.00 | 0.00 | 0.00 | 36 | 1018.5 |
| 20260503194713 | 56 | 206 | 5.2 | 7.0 | 0.00 | 0.00 | 0.00 | 36 | 1018.4 |
| 20260503194209 | 56 | 270 | 2.6 | 5.2 | 0.00 | 0.00 | 0.00 | 41 | 1018.8 |
| 20260503193705 | 56 | 255 | 3.5 | 5.2 | 0.00 | 0.00 | 0.00 | 35 | 1018.8 |
| 20260503193201 | 57 | 290 | 0.9 | 2.6 | 0.00 | 0.00 | 0.00 | 39 | 1018.9 |
| 20260503192656 | 54 | 164 | 0.0 | 6.1 | 0.00 | 0.00 | 0.00 | 40 | 1018.9 |
| 20260503192152 | 56 | 270 | 1.7 | 3.5 | 0.00 | 0.00 | 0.00 | 40 | 1019.2 |
| 20260503191649 | 56 | 222 | 2.6 | 3.5 | 0.00 | 0.00 | 0.00 | 39 | 1019.1 |
| 20260503191146 | 56 | 263 | 1.7 | 2.6 | 0.00 | 0.00 | 0.00 | 40 | 1019.1 |
| 20260503190643 | 55 | 202 | 3.5 | 5.2 | 0.00 | 0.00 | 0.00 | 40 | 1019.4 |
| 20260503190140 | 54 | 223 | 2.6 | 5.2 | 0.00 | 0.00 | 0.00 | 38 | 1019.6 |
| 20260503185636 | 55 | 260 | 6.1 | 7.0 | 0.00 | 0.00 | 0.00 | 36 | 1019.4 |
| 20260503185131 | 56 | 306 | 2.6 | 3.5 | 0.00 | 0.00 | 0.00 | 37 | 1019.2 |
| 20260503184627 | 56 | 251 | 1.7 | 3.5 | 0.00 | 0.00 | 0.00 | 35 | 1019.6 |
| 20260503184124 | 55 | 49 | 0.9 | 3.5 | 0.00 | 0.00 | 0.00 | 42 | 1019.7 |
| 20260503183620 | 55 | 184 | 0.9 | 2.6 | 0.00 | 0.00 | 0.00 | 42 | 1019.7 |
| 20260503183118 | 54 | 154 | 4.3 | 6.1 | 0.00 | 0.00 | 0.00 | 38 | 1019.6 |
| 20260503182616 | 56 | 244 | 2.6 | 5.2 | 0.00 | 0.00 | 0.00 | 40 | 1019.6 |
| 20260503182114 | 55 | 72 | 1.7 | 2.6 | 0.00 | 0.00 | 0.00 | 41 | 1019.8 |
| 20260503181610 | 55 | 218 | 1.7 | 2.6 | 0.00 | 0.00 | 0.00 | 39 | 1019.7 |
| 20260503181107 | 54 | 250 | 0.9 | 2.6 | 0.00 | 0.00 | 0.00 | 38 | 1019.5 |
| 20260503180604 | 53 | 239 | 3.5 | 3.5 | 0.00 | 0.00 | 0.00 | 45 | 1019.8 |
| 20260503175559 | 54 | 246 | 2.6 | 5.2 | 0.00 | 0.00 | 0.00 | 44 | 1019.8 |
| 20260503175056 | 52 | 183 | 1.7 | 3.5 | 0.00 | 0.00 | 0.00 | 47 | 1020.0 |
| 20260503174553 | 55 | 212 | 3.5 | 7.0 | 0.00 | 0.00 | 0.00 | 41 | 1020.1 |
| 20260503174049 | 54 | 256 | 0.9 | 3.5 | 0.00 | 0.00 | 0.00 | 43 | 1020.2 |
| 20260503173544 | 52 | 304 | 2.6 | 7.0 | 0.00 | 0.00 | 0.00 | 47 | 1020.1 |
| 20260503173041 | 52 | 233 | 2.6 | 6.1 | 0.00 | 0.00 | 0.00 | 48 | 1020.1 |
| 20260503172538 | 52 | 217 | 2.6 | 3.5 | 0.00 | 0.00 | 0.00 | 55 | 1020.0 |
| 20260503172035 | 52 | 224 | 4.3 | 6.1 | 0.00 | 0.00 | 0.00 | 43 | 1020.2 |
| 20260503171532 | 52 | 239 | 4.3 | 7.0 | 0.00 | 0.00 | 0.00 | 45 | 1020.2 |
| 20260503171029 | 53 | 195 | 0.9 | 1.7 | 0.00 | 0.00 | 0.00 | 44 | 1020.2 |
| 20260503170525 | 53 | 296 | 1.7 | 2.6 | 0.00 | 0.00 | 0.00 | 49 | 1020.1 |
| 20260503150918 | 44 | 248 | 0.9 | 3.5 | 0.00 | 0.00 | 0.00 | 54 | 1021.5 |
| 20260503150414 | 46 | 235 | 1.7 | 2.6 | 0.00 | 0.00 | 0.00 | 51 | 1021.3 |
| 20260503131308 | 42 | 291 | 0.9 | 2.6 | 0.00 | 0.00 | 0.00 | 68 | 1021.1 |
| 20260503130805 | 41 | 233 | 1.7 | 1.7 | 0.00 | 0.00 | 0.00 | 76 | 1020.9 |
| 20260503130302 | 41 | 268 | 2.6 | 2.6 | 0.00 | 0.00 | 0.00 | 76 | 1021.1 |
| 20260503110656 | 29 | 231 | 0.0 | 0.0 | 0.00 | 0.00 | 0.00 | 99 | 1020.1 |
| 20260503110153 | 29 | 231 | 0.0 | 0.0 | 0.00 | 0.00 | 0.00 | 99 | 1019.9 |
| 20260503100120 | 28 | 231 | 0.0 | 0.0 | 0.00 | 0.00 | 0.00 | 99 | 1019.2 |
| 20260503081509 | 29 | 231 | 0.0 | 0.0 | 0.00 | 0.00 | 0.00 | 99 | 1018.8 |
| 20260503081007 | 30 | 231 | 0.0 | 0.0 | 0.00 | 0.00 | 0.00 | 99 | 1018.7 |
| 20260503080502 | 30 | 231 | 0.0 | 0.0 | 0.00 | 0.00 | 0.00 | 99 | 1018.6 |
| 20260503072933 | 32 | 232 | 0.9 | 0.9 | 0.00 | 0.00 | 0.00 | 99 | 1018.4 |
| 20260503072430 | 31 | 232 | 0.9 | 0.9 | 0.00 | 0.00 | 0.00 | 98 | 1018.4 |
| 20260503071927 | 31 | 232 | 0.0 | 0.0 | 0.00 | 0.00 | 0.00 | 98 | 1018.4 |
| 20260503071424 | 31 | 232 | 0.0 | 0.0 | 0.00 | 0.00 | 0.00 | 98 | 1018.2 |
| 20260503070920 | 32 | 232 | 0.0 | 0.0 | 0.00 | 0.00 | 0.00 | 97 | 1018.2 |
| 20260503070418 | 31 | 232 | 0.0 | 0.0 | 0.00 | 0.00 | 0.00 | 97 | 1018.3 |
| 20260503054831 | 35 | 232 | 0.0 | 0.0 | 0.00 | 0.00 | 0.00 | 90 | 1018.1 |
| 20260503054327 | 36 | 232 | 0.0 | 0.0 | 0.00 | 0.00 | 0.00 | 89 | 1018.1 |
| 20260503053825 | 36 | 232 | 0.0 | 0.9 | 0.00 | 0.00 | 0.00 | 89 | 1018.1 |
| 20260503053323 | 36 | 232 | 0.0 | 0.0 | 0.00 | 0.00 | 0.00 | 89 | 1018.1 |
| 20260503052819 | 36 | 232 | 0.0 | 0.0 | 0.00 | 0.00 | 0.00 | 89 | 1018.1 |
| 20260503052316 | 36 | 232 | 0.0 | 0.9 | 0.00 | 0.00 | 0.00 | 89 | 1018.2 |
| 20260503051812 | 35 | 232 | 0.0 | 0.0 | 0.00 | 0.00 | 0.00 | 90 | 1018.2 |
| 20260503051309 | 36 | 232 | 0.0 | 0.9 | 0.00 | 0.00 | 0.00 | 90 | 1018.1 |
| 20260503050806 | 36 | 218 | 0.0 | 0.0 | 0.00 | 0.00 | 0.00 | 90 | 1018.1 |
| 20260503050302 | 35 | 218 | 0.0 | 0.0 | 0.00 | 0.00 | 0.00 | 91 | 1018.1 |
| 20260503045800 | 35 | 216 | 0.0 | 0.0 | 0.00 | 0.00 | 0.00 | 91 | 1018.1 |
| 20260503045257 | 35 | 214 | 0.0 | 0.0 | 0.00 | 0.00 | 0.00 | 92 | 1018.0 |
| 20260503044753 | 35 | 214 | 0.0 | 0.9 | 0.00 | 0.00 | 0.00 | 91 | 1018.1 |
| 20260503044250 | 35 | 214 | 0.0 | 0.0 | 0.00 | 0.00 | 0.00 | 91 | 1018.1 |
| 20260503043748 | 35 | 214 | 0.0 | 0.0 | 0.00 | 0.00 | 0.00 | 91 | 1018.1 |
| 20260503043245 | 35 | 213 | 0.0 | 0.9 | 0.00 | 0.00 | 0.00 | 91 | 1018.0 |
| 20260503042740 | 35 | 169 | 0.0 | 0.0 | 0.00 | 0.00 | 0.00 | 90 | 1018.1 |
| 20260503042237 | 35 | 169 | 0.0 | 0.0 | 0.00 | 0.00 | 0.00 | 89 | 1018.1 |
| 20260503041733 | 35 | 169 | 0.0 | 0.0 | 0.00 | 0.00 | 0.00 | 87 | 1018.2 |
| 20260503041231 | 35 | 169 | 0.0 | 0.0 | 0.00 | 0.00 | 0.00 | 87 | 1018.1 |
| 20260503040729 | 35 | 168 | 0.0 | 0.0 | 0.00 | 0.00 | 0.00 | 86 | 1018.2 |
| 20260503040227 | 36 | 168 | 0.0 | 0.0 | 0.00 | 0.00 | 0.00 | 84 | 1018.0 |
| 20260503035723 | 37 | 168 | 0.0 | 0.0 | 0.00 | 0.00 | 0.00 | 83 | 1017.9 |
| 20260503035221 | 37 | 169 | 0.0 | 0.0 | 0.00 | 0.00 | 0.00 | 82 | 1018.3 |
| 20260503034718 | 37 | 260 | 0.0 | 0.9 | 0.00 | 0.00 | 0.00 | 81 | 1018.1 |
| 20260503034215 | 38 | 232 | 0.0 | 0.0 | 0.00 | 0.00 | 0.00 | 80 | 1018.2 |
| 20260503033712 | 38 | 283 | 0.9 | 1.7 | 0.00 | 0.00 | 0.00 | 79 | 1018.1 |
| 20260503033210 | 38 | 235 | 0.9 | 0.9 | 0.00 | 0.00 | 0.00 | 79 | 1018.2 |
| 20260503032708 | 38 | 111 | 0.0 | 0.0 | 0.00 | 0.00 | 0.00 | 79 | 1018.1 |
| 20260503032206 | 38 | 255 | 0.0 | 0.9 | 0.00 | 0.00 | 0.00 | 78 | 1018.2 |
| 20260503031703 | 38 | 236 | 0.0 | 0.9 | 0.00 | 0.00 | 0.00 | 78 | 1017.8 |
| 20260503031201 | 38 | 255 | 0.9 | 1.7 | 0.00 | 0.00 | 0.00 | 78 | 1018.2 |
| 20260503030656 | 38 | 269 | 0.0 | 0.9 | 0.00 | 0.00 | 0.00 | 76 | 1018.1 |
| 20260503030153 | 38 | 256 | 0.0 | 0.0 | 0.00 | 0.00 | 0.00 | 76 | 1018.0 |
| 20260503025651 | 39 | 268 | 0.0 | 0.9 | 0.00 | 0.00 | 0.00 | 75 | 1018.3 |
| 20260503025148 | 39 | 226 | 0.0 | 0.9 | 0.00 | 0.00 | 0.00 | 75 | 1018.3 |
| 20260503024644 | 39 | 287 | 0.0 | 0.9 | 0.00 | 0.00 | 0.00 | 74 | 1018.2 |
| 20260503024142 | 40 | 262 | 0.0 | 0.9 | 0.00 | 0.00 | 0.00 | 72 | 1018.2 |
| 20260503023638 | 40 | 284 | 0.0 | 0.9 | 0.00 | 0.00 | 0.00 | 71 | 1018.0 |
| 20260503023136 | 40 | 309 | 0.0 | 1.7 | 0.00 | 0.00 | 0.00 | 72 | 1018.0 |
| 20260503022631 | 40 | 3 | 0.9 | 0.9 | 0.00 | 0.00 | 0.00 | 70 | 1017.9 |
| 20260503022126 | 41 | 278 | 0.0 | 0.9 | 0.00 | 0.00 | 0.00 | 69 | 1017.9 |
| 20260503021623 | 41 | 303 | 0.0 | 0.9 | 0.00 | 0.00 | 0.00 | 69 | 1017.8 |
| 20260503021120 | 41 | 102 | 0.9 | 1.7 | 0.00 | 0.00 | 0.00 | 68 | 1017.9 |
| 20260503020617 | 41 | 309 | 0.9 | 2.6 | 0.00 | 0.00 | 0.00 | 68 | 1017.8 |
| 20260503020114 | 41 | 305 | 1.7 | 5.2 | 0.00 | 0.00 | 0.00 | 68 | 1017.9 |
| 20260503015611 | 40 | 310 | 0.9 | 2.6 | 0.00 | 0.00 | 0.00 | 70 | 1017.9 |
| 20260503015108 | 40 | 16 | 0.9 | 0.9 | 0.00 | 0.00 | 0.00 | 68 | 1017.6 |
| 20260503014604 | 40 | 333 | 0.0 | 0.9 | 0.00 | 0.00 | 0.00 | 68 | 1017.6 |
| 20260503014102 | 41 | 266 | 0.9 | 1.7 | 0.00 | 0.00 | 0.00 | 66 | 1017.7 |
| 20260503013558 | 41 | 303 | 0.0 | 0.9 | 0.00 | 0.00 | 0.00 | 66 | 1017.6 |
| 20260503013056 | 42 | 321 | 0.0 | 0.0 | 0.00 | 0.00 | 0.00 | 66 | 1017.3 |
| 20260503012554 | 42 | 304 | 0.0 | 0.9 | 0.00 | 0.00 | 0.00 | 64 | 1017.3 |
| 20260503012050 | 42 | 253 | 0.0 | 1.7 | 0.00 | 0.00 | 0.00 | 63 | 1017.3 |
| 20260503011546 | 42 | 272 | 0.0 | 0.9 | 0.00 | 0.00 | 0.00 | 63 | 1017.4 |
| 20260503011044 | 42 | 269 | 0.9 | 1.7 | 0.00 | 0.00 | 0.00 | 63 | 1017.3 |
| 20260503010540 | 42 | 301 | 0.9 | 1.7 | 0.00 | 0.00 | 0.00 | 62 | 1017.1 |
| 20260503010038 | 43 | 53 | 0.9 | 1.7 | 0.00 | 0.00 | 0.00 | 62 | 1017.1 |
| 20260503005534 | 43 | 107 | 0.0 | 1.7 | 0.00 | 0.00 | 0.00 | 61 | 1017.0 |
| 20260503005032 | 43 | 280 | 0.0 | 0.9 | 0.00 | 0.00 | 0.00 | 61 | 1016.9 |